This is the latest recevied weather packets stored in our database for station/object EA7OC-10. If no packets are shown the sender has not sent any weather packets the latest 1 day(s).
| Time | Temp. | Humidity | Pressure | Rain* | Wind** | Luminosity | Snow |
|---|---|---|---|---|---|---|---|
| 1778095795 | 22.78° C | 26% | 1008.7 hPa | - | - | - | - |
| 1778094895 | 23.89° C | 25% | 1008.6 hPa | - | - | - | - |
| 1778088594 | 33.89° C | 27% | 1008.9 hPa | - | - | - | - |
| 1778087694 | 33.89° C | 26% | 1009 hPa | - | - | - | - |
| 1778084992 | 35° C | 27% | 1009.1 hPa | - | - | - | - |
| 1778083191 | 35° C | 27% | 1009.3 hPa | - | - | - | - |
| 1778082291 | 35° C | 27% | 1009.4 hPa | - | - | - | - |
| 1778078685 | 33.89° C | 27% | 1010.3 hPa | - | - | - | - |
| 1778075983 | 32.78° C | 28% | 1010.8 hPa | - | - | - | - |
| 1778075083 | 32.22° C | 27% | 1010.8 hPa | - | - | - | - |
| 1778074183 | 32.22° C | 27% | 1010.9 hPa | - | - | - | - |
| 1778073283 | 32.78° C | 27% | 1011.1 hPa | - | - | - | - |
| 1778068817 | 32.22° C | 28% | 1011.9 hPa | - | - | - | - |
| 1778067917 | 30.56° C | 28% | 1012 hPa | - | - | - | - |
| 1778067017 | 28.89° C | 28% | 1012.1 hPa | - | - | - | - |
| 1778066117 | 28.33° C | 28% | 1012.3 hPa | - | - | - | - |
| 1778060716 | 31.67° C | 27% | 1013 hPa | - | - | - | - |
| 1778059816 | 31.67° C | 27% | 1013.2 hPa | - | - | - | - |
| 1778058916 | 31.67° C | 27% | 1013.2 hPa | - | - | - | - |
| 1778058016 | 31.67° C | 27% | 1013.3 hPa | - | - | - | - |
| 1778057116 | 31.67° C | 28% | 1013.3 hPa | - | - | - | - |
| 1778056216 | 30.56° C | 28% | 1013.3 hPa | - | - | - | - |
| 1778053515 | 28.89° C | 28% | 1013.2 hPa | - | - | - | - |
| 1778052615 | 28.33° C | 29% | 1013.2 hPa | - | - | - | - |
| 1778051715 | 26.67° C | 31% | 1013.2 hPa | - | - | - | - |
* Rain since midnight (hover to see other rain measurements)
** Current wind speed in m/s (hover to see current wind gust speed)